FENGYUN 1C DEB, 36283

Orbit data source: Space-Track

FENGYUN 1C DEB, 36283 is space debris in SSO originally from a launch on Mon, 10 May 1999 UTC launched from the Taiyaun Space Center, China (TSC). Fengyun 1C debris stems from the Chinese weather satellite Fengyun-1C, which was intentionally destroyed by a Chinese anti-satellite missile in 2007. This event dramatically increased the amount of space debris, with thousands of trackable fragments posing hazards to satellites and human spaceflight. The Fengyun 1C debris cloud has become a focal point in discussions about space sustainability and the need for international regulations to prevent the creation of new debris.

Loading next visibility...
Identifier
36283, 1999-025DXL
Orbit
SSO
Country
Flag of CNCN / PRC
Related business
Manufacturer
Unknown
Mission
Spacecraft
Bus & Motor
Unknown
Mass
Unknown
Launch date (UTC)
1999-05-10 (27 years ago)
Launch vehicle
Unknown
Launch site
Taiyaun Space Center, China (TSC)
Object type
Payload
Rocket body
Debris
Shape & HBR
Unknown shape, 0.1 m
Radar Cross Section
Small (<0.1 m²)

Expand to show TLE details & history
Last TLE update: 4 days ago

TLE from 4 days ago
0 FENGYUN 1C DEB
1 36283U 99025DXL 26165.76021927  .00023800  00000-0  11390-2 0  9990
2 36283  99.4233 178.7652 0053201 167.3994 192.8577 15.17719886694472
Epoch: 2026-06-14T18:14Z
TLE epoch observation values (Epoch: 2026-06-14T18:14:42.944Z)
Latitude
-0.00011°
Longitude
2.02995°
Altitude
551.514 km
Speed
7.566 km/s
True Right ascension
11h 55m 03s
True Declination
0° 00' 00"
Sunlit
Object was in daylight at epoch
Visualization orbit readout
Latitude
Unknown
Longitude
Unknown
Altitude
Unknown
Speed
Unknown
Apparent Right ascension
Unknown
Apparent Declination
Unknown
Sunlit
N/A
Visualization observer readout
Local Sidereal Time
13:17:20
Azimuth
Unknown
Elevation
Unknown
Doppler factor
Unknown
Orbital elements
Apogee altitude
546.444 km
Perigee altitude
473.155 km
Semi-major axis
6,887.937 km
Eccentricity
0.00532
Inclination
99.4233°
RAAN
178.7652°
Arg. of periapsis
167.3994°
True anomaly
192.72291°
Mean anomaly
192.8577°
Eccentric anomaly
192.79022°
Mean motion
3.79673 °/min
Orbital period
94.82 mins
BSTAR
0.001139
Loading maneuver chart data...
Computing Atmospheric mass density...

Documentation

Showing up to 5 results
|